Lapse_Rate
9.4 9.3 9.3 9.5 9.4 9.5 9.4 9.1 9.4 9.4 8.8 9.2 9.0 9.5 9.5 9.5 9.4 7.9 7.1 8.0 8.2 7.6 7.2 7.9 7.2 7.3 8.7 9.4 9.5 9.5 9.2 9.1 8.5 9.0 9.2 9.4 8.7 9.3 9.5 9.6 9.5 9.7 9.1
9.1 9.2 9.3 9.3 9.5 9.5 8.9 7.3 6.9 8.7 9.4 9.2 9.3 9.4 9.5 9.5 9.5 9.3 9.0 9.3 8.7 9.2 9.2 9.2 9.2 9.5 9.1 9.0 9.4 9.1 9.2 8.7 8.9 8.3 8.8 9.3 9.1 9.1 9.3 9.4 9.8 9.8 9.7
9.1 9.2 9.1 8.7 9.3 9.3 8.4 7.2 6.7 8.3 8.4 9.6 9.4 9.4 9.4 9.6 9.4 9.4 9.4 9.4 9.4 9.3 9.0 8.8 8.7 8.2 8.2 8.6 8.6 8.8 9.3 9.2 8.9 9.0 8.8 9.3 9.3 9.5 9.4 9.2 9.4 9.3 9.2
9.2 9.2 9.0 9.2 9.4 9.4 7.0 5.7 6.1 7.2 8.7 9.1 9.5 9.5 9.5 9.6 9.6 9.6 9.5 9.5 9.4 9.4 9.2 8.4 7.7 7.9 7.1 7.3 8.9 8.6 8.1 8.6 8.7 8.9 8.9 9.0 9.1 9.2 8.9 8.4 8.2 9.3 9.4
9.1 9.2 8.8 8.6 7.9 5.8 5.0 4.9 5.7 6.0 7.9 8.3 9.4 9.5 9.6 9.6 9.8 9.4 9.4 9.4 9.5 9.4 9.4 8.7 7.9 6.8 5.8 5.4 7.4 7.9 7.1 8.9 8.9 8.9 8.7 8.8 8.9 8.8 8.2 8.5 8.9 9.2 8.4
8.9 9.1 7.6 5.6 5.4 5.1 4.6 4.8 5.1 5.4 6.7 6.9 9.2 9.4 9.4 9.8 4.0 5.4 5.9 9.5 9.5 9.4 9.2 9.4 9.5 8.0 7.7 6.1 5.9 5.7 5.3 6.9 8.1 8.6 8.7 8.3 8.5 8.7 8.1 8.4 7.7 8.6 8.1
8.9 8.8 6.8 5.5 5.3 5.4 5.4 5.3 5.3 5.6 8.5 8.1 9.0 9.4 9.4 9.3 5.1 5.3 5.5 8.1 9.5 9.4 9.4 9.4 9.5 9.3 8.8 8.6 8.9 7.2 6.4 6.0 5.4 6.9 7.7 8.3 7.5 7.5 8.1 7.5 8.7 8.7 8.7
8.8 8.5 7.0 6.1 5.8 6.2 5.7 5.9 6.0 7.3 8.7 9.0 9.2 9.3 9.4 8.3 5.0 5.4 5.2 7.2 9.4 9.5 9.6 9.4 9.4 9.4 6.9 6.4 7.1 9.1 8.6 7.7 7.6 8.0 7.8 7.5 8.7 7.2 6.8 6.9 7.2 7.3 8.3
8.7 8.7 7.5 6.4 5.9 6.6 6.6 6.8 8.2 8.8 9.2 9.2 9.4 9.3 9.3 8.8 4.6 5.0 4.9 8.3 9.3 9.3 9.6 9.6 9.6 9.4 3.1 3.3 6.5 9.0 8.9 8.1 6.0 6.2 5.7 5.1 4.5 3.9 4.4 7.2 8.3 8.4 7.1
8.7 8.8 7.9 7.2 8.3 7.7 7.4 7.3 7.5 7.6 9.0 9.5 9.3 9.5 6.6 9.1 4.0 3.8 4.9 9.3 9.2 9.5 9.5 9.2 6.4 6.8 3.1 2.3 5.9 9.0 8.5 8.0 8.3 7.1 7.3 6.0 5.3 6.8 5.2 8.4 9.4 8.8 8.4
9.2 8.7 8.1 6.9 6.5 7.4 7.4 6.9 7.3 8.4 8.6 9.1 9.2 9.3 9.4 8.8 7.1 3.2 3.3 6.6 9.5 9.5 9.4 9.5 7.6 3.1 2.3 1.8 1.9 7.1 7.8 6.2 8.0 9.0 9.2 9.2 9.1 9.6 9.6 9.5 8.0 9.2 9.0
8.5 8.7 7.6 6.0 7.1 7.9 6.7 6.6 6.5 7.6 8.2 8.9 8.9 9.1 9.4 8.6 3.6 2.2 2.6 2.7 3.7 7.5 9.1 9.6 5.8 2.2 2.0 2.0 3.6 5.4 5.0 4.2 8.5 9.2 9.3 9.2 9.2 9.4 9.5 9.5 7.7 7.2 7.9
4.6 4.9 3.7 6.1 8.1 7.7 6.8 7.7 9.0 8.3 8.6 9.0 9.2 9.0 9.3 8.3 9.0 3.0 2.3 2.4 1.6 4.7 8.0 4.8 4.4 3.6 2.6 3.4 3.0 4.1 3.9 8.3 9.3 9.2 9.1 9.2 9.3 9.6 8.5 8.9 8.7 8.1 7.3
5.0 6.4 7.9 8.2 8.7 8.8 9.4 9.4 9.2 9.2 9.2 9.2 9.1 9.1 9.2 9.3 9.4 7.4 6.9 6.1 2.6 4.5 5.8 7.3 7.4 6.3 3.6 5.3 6.0 6.0 7.9 9.4 9.3 9.2 9.1 9.4 9.6 9.6 9.5 9.6 9.4 9.5 9.3
8.1 8.8 8.9 9.3 7.9 9.1 8.8 9.4 9.4 9.4 7.4 8.9 9.2 9.2 9.1 9.1 7.3 4.1 6.4 9.0 9.2 5.7 5.4 9.4 9.2 9.1 9.1 8.6 9.3 9.4 9.5 9.6 9.3 9.4 9.4 9.3 9.4 9.4 9.4 9.6 9.4 9.3 9.0
8.8 9.2 9.3 9.4 9.4 9.3 9.3 9.2 2.4 2.7 2.5 2.5 1.2 2.2 8.5 3.1 2.2 2.8 2.9 2.0 1.5 0.7 6.6 9.1 9.1 9.2 9.1 9.1 9.1 9.3 9.3 8.8 9.4 9.4 9.4 9.3 9.2 9.2 9.2 9.4 9.4 9.2 8.9
9.0 9.0 9.3 8.8 9.4 9.1 9.2 9.1 8.9 5.0 -0.3 -1.4 -1.7 -1.2 -2.2 1.7 0.1 -0.4 -0.6 -0.7 -0.9 -0.6 6.8 9.0 9.1 9.2 9.1 9.2 9.3 9.3 9.3 9.3 9.0 9.3 9.3 9.3 9.3 9.3 9.0 9.2 9.2 9.1 9.0
9.2 4.5 9.2 9.3 9.4 9.4 9.3 9.3 9.4 9.1 8.9 8.9 0.1 0.5 -2.6 -2.7 -3.0 -2.8 -2.7 -3.3 5.0 1.8 6.2 8.6 9.2 9.2 9.3 9.3 9.3 9.3 9.3 9.3 9.4 9.3 9.2 9.3 9.3 9.2 9.1 9.1 9.2 8.9 9.0
9.3 9.5 9.4 9.5 9.4 8.2 9.2 7.7 8.6 8.2 7.9 8.8 9.1 -1.1 0.5 -3.7 -3.7 -3.9 -3.9 5.7 9.1 9.3 9.3 9.2 9.3 9.3 9.3 9.2 9.3 9.3 9.1 9.2 9.1 9.1 9.2 9.3 9.3 9.2 9.1 9.2 9.2 6.5 7.7
9.2 6.1 7.4 9.3 9.5 8.8 9.3 9.4 9.2 8.8 8.7 7.1 8.7 9.3 6.7 2.4 5.1 6.0 4.0 5.8 7.4 9.2 9.5 9.4 9.5 9.4 9.3 9.3 9.3 9.3 9.4 9.2 9.2 9.2 9.2 9.3 9.3 9.3 9.2 9.2 9.2 9.1 9.0
9.5 9.4 8.4 9.2 9.1 8.8 6.5 7.2 9.0 9.4 8.6 8.4 7.5 4.8 2.2 6.5 8.2 8.9 8.7 7.8 8.0 9.0 9.0 9.4 9.5 9.5 9.4 9.4 9.4 9.4 9.3 9.4 9.5 9.4 9.4 9.4 9.4 9.3 9.3 9.3 9.3 9.3 9.3
8.8 8.5 8.3 8.8 9.1 9.0 9.1 9.1 8.6 8.4 8.9 8.0 9.0 8.5 1.3 4.0 6.7 4.0 4.2 3.6 3.1 3.1 3.9 3.6 6.0 6.0 6.8 6.8 6.8 8.8 8.4 9.2 9.0 8.3 8.8 8.9 8.8 8.9 9.4 9.3 9.3 9.2 9.2
9.6 9.6 9.5 9.4 9.4 8.3 9.1 9.2 8.1 8.2 8.2 8.4 8.4 9.2 8.7 6.6 6.0 4.8 3.8 2.8 2.7 2.3 2.5 2.0 2.8 3.5 2.6 4.2 4.8 5.1 8.0 9.5 9.2 8.1 6.8 7.9 7.4 7.2 7.5 9.2 9.2 9.1 9.2
9.7 9.7 9.4 9.6 9.7 9.5 9.5 9.4 9.4 6.8 8.2 7.0 5.2 4.6 4.1 4.0 4.7 4.5 4.8 4.2 4.2 4.9 5.1 5.0 2.2 3.3 2.5 2.1 1.0 2.1 -0.1 -1.4 1.2 6.8 9.0 7.0 7.2 7.4 7.1 7.8 8.8 9.1 8.4
9.8 9.7 9.6 9.5 9.5 9.4 9.4 9.5 9.5 9.6 9.6 9.6 9.6 9.6 9.7 9.3 7.5 7.2 5.4 5.2 5.9 3.6 4.8 5.9 3.6 2.0 3.9 2.6 2.6 1.7 -0.7 -2.4 -1.1 -1.7 3.5 7.7 7.4 7.6 6.4 5.0 5.2 7.4 8.5
9.7 9.6 9.6 9.6 9.5 9.5 9.5 9.5 9.5 9.5 9.6 9.7 9.7 9.7 9.7 9.8 9.8 9.9 9.9 9.9 9.9 9.9 10.0 10.2 9.9 9.7 9.6 9.0 7.9 3.1 0.7 -1.3 -1.6 -2.7 -1.6 2.3 6.3 7.3 6.2 4.7 5.0 6.7 7.7
Wind_Speed
10 9 9 8 7 5 5 4 2 2 1 1 1 1 2 3 4 5 7 7 6 6 5 5 5 5 5 6 6 5 5 6 8 7 8 6 6 6 8 11 13 14 13
9 9 9 9 7 7 5 4 3 2 2 2 1 1 1 3 5 6 6 6 5 6 5 5 7 5 5 6 5 4 5 6 7 7 8 7 5 6 8 5 7 13 11
10 10 10 9 8 7 6 5 4 3 2 3 2 1 3 4 3 3 4 6 5 5 7 5 6 7 7 8 8 8 8 5 4 6 7 8 5 5 3 6 6 6 10
12 11 10 9 7 7 5 4 3 1 1 2 1 1 3 3 2 2 3 3 4 6 3 3 2 3 7 8 8 6 6 7 5 7 8 7 5 3 5 6 7 5 6
12 12 10 8 7 7 6 4 3 3 2 1 2 2 2 4 3 4 5 3 4 5 6 2 4 4 1 5 7 8 8 7 8 7 5 6 7 7 7 5 7 8 7
13 12 11 10 8 7 6 5 4 3 2 2 2 3 3 4 9 6 6 9 3 5 6 7 8 8 9 10 7 9 8 7 8 7 7 5 5 7 6 6 5 7 4
12 12 11 10 8 6 6 5 5 4 3 3 3 4 5 5 8 4 4 8 7 4 6 6 7 4 4 7 5 11 11 10 9 6 6 6 5 4 5 6 7 6 7
11 12 12 10 9 8 7 6 5 4 4 4 3 5 6 1 9 6 3 8 10 4 6 7 6 7 7 6 9 8 7 7 9 6 3 4 5 5 6 7 9 10 9
13 11 11 10 10 8 6 5 3 3 4 4 4 4 6 4 9 7 5 8 10 4 6 5 5 6 6 7 8 8 7 8 3 3 4 4 5 6 8 8 5 7 3
10 10 9 8 7 6 5 4 4 4 5 5 3 4 1 5 9 8 5 7 9 6 5 8 8 3 4 3 6 10 4 5 6 5 7 7 11 11 10 5 7 7 4
9 9 8 6 4 2 3 2 3 4 5 3 5 5 5 5 6 8 4 7 8 6 7 6 7 6 3 2 5 8 7 7 10 9 10 8 9 5 4 4 4 7 5
8 7 5 3 3 5 3 3 4 5 5 6 6 6 8 7 6 9 8 8 7 7 7 7 6 5 3 5 7 3 8 8 9 9 5 5 3 3 1 2 4 4 4
11 10 8 6 5 2 4 5 5 6 6 7 6 8 5 9 7 11 11 9 8 6 7 6 5 5 7 9 12 11 9 8 8 6 6 4 2 3 3 7 8 7 8
9 8 7 6 5 4 5 6 6 6 6 6 6 5 5 4 4 8 7 8 11 8 9 9 8 7 7 7 5 9 8 7 4 7 6 5 3 5 5 2 5 4 5
9 7 6 6 7 6 7 6 6 5 4 6 6 5 5 6 4 8 3 4 5 4 5 7 7 8 8 9 8 6 5 6 6 6 6 5 5 5 5 4 5 5 5
7 6 5 6 6 6 5 6 12 11 7 6 6 5 7 2 9 7 5 3 1 1 5 8 8 7 6 6 6 6 6 5 6 6 6 6 6 6 6 5 5 5 6
4 3 3 4 5 3 4 5 6 9 8 9 11 12 11 11 5 6 6 6 5 3 7 9 9 8 8 7 6 7 7 6 2 5 7 7 7 7 5 7 7 8 7
3 4 4 4 4 4 4 5 6 7 7 7 15 12 13 15 12 10 8 5 6 6 9 10 9 9 9 8 7 7 6 6 6 6 7 7 8 8 8 8 8 8 8
5 5 5 5 5 3 5 6 7 8 6 7 6 3 13 4 2 6 10 9 10 10 10 10 9 9 8 7 6 7 7 7 7 7 7 7 7 8 8 9 9 8 7
7 1 4 6 6 5 7 9 9 8 8 8 10 7 1 7 7 10 10 11 10 10 11 11 10 9 8 7 8 8 9 9 8 8 9 8 8 8 9 10 10 10 9
5 5 3 7 8 7 5 7 10 9 10 8 6 5 13 3 9 7 7 7 9 9 9 10 10 9 9 8 8 9 10 11 10 10 9 9 9 9 9 10 10 10 10
2 4 3 4 5 6 7 8 7 8 9 8 9 7 11 3 5 9 8 8 9 10 10 9 10 4 4 3 4 10 9 10 10 8 9 8 8 8 9 10 10 11 11
5 6 6 5 5 7 6 6 7 8 8 8 9 8 6 6 6 8 7 7 7 8 9 8 7 9 11 11 11 7 15 10 9 8 3 6 5 6 7 10 11 10 11
7 8 8 8 7 6 7 5 5 4 3 4 4 5 5 5 6 8 7 8 8 8 8 8 5 11 11 9 13 18 20 21 18 11 14 5 6 8 6 8 10 13 10
7 7 7 7 8 8 9 9 9 10 9 8 8 7 6 5 5 5 4 4 4 4 5 8 6 6 8 9 12 15 17 21 20 25 17 12 7 13 10 6 5 10 13
6 7 6 6 6 6 6 6 6 6 7 6 6 6 7 7 7 7 7 7 9 10 12 9 14 19 21 20 11 11 13 13 17 22 17 11 11 11 9 9 10 10 11
Wind_Direction
174 166 137 143 143 145 128 130 135 103 118 89 41 38 31 5 357 346 334 302 327 321 313 302 310 297 298 307 310 298 286 280 280 289 330 324 354 306 286 305 297 298 277
133 151 143 144 150 132 139 122 126 159 169 149 106 74 354 3 354 347 328 339 314 313 323 310 318 327 315 256 268 259 289 302 287 299 281 281 309 295 273 295 293 297 315
159 160 153 153 158 139 140 137 140 173 164 120 129 65 326 334 345 337 336 335 329 324 18 336 337 340 323 343 330 327 321 316 269 284 302 282 284 287 295 266 260 268 259
172 161 158 164 146 137 129 119 128 134 155 92 290 254 280 290 318 356 358 348 333 335 341 355 341 7 348 336 309 304 338 314 289 284 287 294 273 356 1 357 327 279 325
165 161 162 141 137 141 136 133 153 148 115 340 264 255 280 272 239 37 329 299 330 328 327 329 55 26 302 302 312 340 321 313 306 312 310 320 345 350 14 329 326 332 350
170 165 151 155 160 152 143 153 161 145 183 187 259 268 261 299 83 63 341 312 323 308 332 326 311 213 222 234 256 274 291 305 306 318 310 341 342 328 16 356 329 327 322
170 154 160 159 153 158 161 169 167 173 194 220 251 273 276 237 139 119 317 298 312 329 307 318 305 75 20 324 317 269 266 250 262 301 293 314 326 2 342 319 315 307 296
164 161 161 163 156 170 179 179 176 186 215 230 253 269 272 242 163 175 238 284 281 274 303 302 298 305 47 338 320 289 304 266 250 253 301 353 338 341 329 298 280 278 267
170 169 169 166 167 177 181 174 200 216 224 233 244 259 256 224 180 190 230 275 275 293 283 283 291 301 67 24 312 289 300 306 211 276 264 240 248 256 280 300 332 288 28
163 163 167 169 175 179 179 187 199 222 247 274 248 250 13 292 178 193 222 269 284 285 290 232 177 258 90 18 310 299 265 298 310 234 242 240 242 232 238 309 329 313 315
155 152 164 165 158 207 188 201 225 236 297 255 272 252 261 265 157 189 203 273 295 308 295 285 136 152 177 275 283 290 335 324 294 255 246 226 205 216 198 46 0 317 331
139 149 150 164 217 161 215 219 226 244 248 253 257 259 233 202 174 193 202 249 325 292 287 287 119 184 214 252 269 289 284 287 266 264 270 265 281 292 1 24 324 315 356
148 159 155 198 208 195 226 247 254 228 266 259 237 229 246 178 183 169 187 218 241 259 271 341 308 290 270 256 242 257 265 259 264 286 276 292 304 326 326 239 217 223 232
160 177 159 191 203 223 240 228 233 261 254 258 264 265 270 262 241 171 199 205 228 234 245 247 231 239 284 294 192 222 237 260 324 308 301 304 289 263 260 258 287 288 293
163 185 175 199 192 236 228 271 275 259 334 310 294 306 293 278 48 59 49 321 325 32 324 285 254 242 241 217 236 236 244 251 240 259 273 271 270 269 265 252 272 277 268
184 185 207 222 210 216 245 230 209 232 244 223 258 262 281 88 154 149 150 165 159 32 268 270 276 274 272 274 274 271 260 231 248 251 268 270 267 268 267 255 244 259 273
219 189 205 238 261 238 246 266 287 216 232 233 234 235 220 261 167 176 187 189 174 171 250 264 267 271 277 280 285 286 284 284 347 287 279 277 271 268 247 254 258 258 257
215 54 263 260 251 262 261 267 270 269 263 240 223 224 216 227 223 204 182 172 224 223 247 257 264 275 276 267 267 276 281 277 259 253 253 261 262 266 265 262 255 253 260
235 251 208 245 260 305 316 320 295 293 301 301 286 186 228 204 176 164 170 230 249 256 253 245 252 249 249 263 270 269 267 270 275 281 276 266 260 263 261 259 261 259 278
226 127 335 303 296 305 277 272 271 270 298 289 280 275 268 152 200 209 211 220 237 251 261 263 266 266 267 254 256 259 255 246 241 240 244 248 256 267 266 265 261 261 255
323 316 342 310 308 319 326 325 315 310 305 293 310 359 349 281 267 259 285 215 222 243 247 250 257 261 262 253 245 250 253 257 252 246 245 246 246 251 249 255 261 265 261
331 302 324 314 314 315 336 324 348 316 315 318 315 331 349 342 335 16 13 11 5 5 2 9 338 317 298 300 315 277 245 250 253 255 246 243 242 243 249 254 258 257 254
331 326 314 312 327 339 315 337 357 346 343 345 338 336 357 349 346 346 356 348 352 358 352 356 351 337 357 351 347 303 287 267 262 268 280 275 237 237 246 255 254 249 253
335 328 331 322 325 325 295 316 291 214 299 320 330 343 346 338 338 340 341 343 341 341 340 332 357 334 340 344 346 1 6 358 344 339 278 242 285 265 250 253 260 258 253
350 346 334 340 335 339 339 332 337 333 335 327 325 325 324 306 268 278 241 256 292 263 308 311 303 294 328 322 337 344 358 356 10 5 342 303 251 254 263 273 293 280 260
5 356 349 350 352 349 344 341 338 334 342 335 340 334 338 328 337 343 337 338 342 334 340 337 331 327 325 319 332 343 341 6 1 3 358 319 293 280 275 265 259 270 260